DW7787 Weather Reports


Display with metric or nautical units.
time (UTC)temp
F
wind
direction
speed
MPH
gust
MPH
rain 1hr
in
rain 24hr
in
rain mn
in
humidity
%
barometer
mb
20260504223702 77 217 1.0 4.0 0.00 0.00 0.00 29 1014.2
20260504223510 77 242 2.0 3.0 0.00 0.00 0.00 27 1014.3
20260504222702 77 211 1.0 4.0 0.00 0.00 0.00 28 1014.3
20260504222201 77 188 2.0 5.0 0.00 0.00 0.00 28 1014.2
20260504222029 78 169 2.0 5.0 0.00 0.00 0.00 26 1014.4
20260504221200 78 161 2.0 5.0 0.00 0.00 0.00 25 1014.3
20260504221005 78 70 2.0 6.0 0.00 0.00 0.00 24 1014.4
20260504220202 79 259 2.0 6.0 0.00 0.00 0.00 24 1014.3
20260504215705 79 213 1.0 6.0 0.00 0.00 0.00 22 1014.3
20260504215209 79 247 1.0 5.0 0.00 0.00 0.00 26 1014.3
20260504214659 79 201 2.0 5.0 0.00 0.00 0.00 24 1014.3
20260504214153 79 231 2.0 4.0 0.00 0.00 0.00 25 1014.3
20260504213647 79 229 2.0 4.0 0.00 0.00 0.00 25 1014.4
20260504213144 79 196 2.0 4.0 0.00 0.00 0.00 25 1014.5
20260504212643 79 223 2.0 6.0 0.00 0.00 0.00 25 1014.5
20260504212145 79 308 2.0 6.0 0.00 0.00 0.00 25 1014.4
20260504211645 79 128 2.0 5.0 0.00 0.00 0.00 25 1014.4
20260504211141 79 194 2.0 5.0 0.00 0.00 0.00 25 1014.5
20260504210639 79 279 2.0 5.0 0.00 0.00 0.00 23 1014.5
20260504210135 80 192 2.0 4.0 0.00 0.00 0.00 25 1014.6
20260504205635 80 221 2.0 4.0 0.00 0.00 0.00 26 1014.5
20260504205135 80 209 1.0 4.0 0.00 0.00 0.00 26 1014.7
20260504204633 80 116 1.0 3.0 0.00 0.00 0.00 27 1014.7
20260504204446 80 310 2.0 4.0 0.00 0.00 0.00 26 1014.8
20260504203635 80 153 1.0 4.0 0.00 0.00 0.00 26 1014.8
20260504203133 81 110 1.0 4.0 0.00 0.00 0.00 26 1014.9
20260504202942 81 221 1.0 4.0 0.00 0.00 0.00 28 1015.0
20260504202130 79 213 2.0 6.0 0.00 0.00 0.00 29 1015.1
20260504201748 80 148 1.0 4.0 0.00 0.00 0.00 28 1015.0
20260504201726 80 132 1.0 6.0 0.00 0.00 0.00 27 1015.0
20260504200630 78 177 2.0 6.0 0.00 0.00 0.00 27 1015.1
20260504200127 79 105 2.0 6.0 0.00 0.00 0.00 26 1015.1
20260504195620 79 144 2.0 5.0 0.00 0.00 0.00 27 1015.3
20260504195114 79 132 2.0 5.0 0.00 0.00 0.00 26 1015.2
20260504194609 79 307 2.0 5.0 0.00 0.00 0.00 26 1015.3
20260504194105 78 173 2.0 5.0 0.00 0.00 0.00 28 1015.4
20260504193605 79 123 2.0 3.0 0.00 0.00 0.00 26 1015.5
20260504193107 79 175 2.0 5.0 0.00 0.00 0.00 27 1015.5
20260504192918 80 215 2.0 5.0 0.00 0.00 0.00 27 1015.6
20260504192359 79 222 2.0 4.0 0.00 0.00 0.00 29 1015.6
20260504191610 79 134 1.0 4.0 0.00 0.00 0.00 28 1015.6
20260504191108 79 129 1.0 4.0 0.00 0.00 0.00 26 1015.7
20260504190605 79 202 2.0 4.0 0.00 0.00 0.00 27 1015.8
20260504190106 79 226 1.0 4.0 0.00 0.00 0.00 25 1015.8
20260504185605 79 185 1.0 5.0 0.00 0.00 0.00 26 1015.9
20260504185409 78 213 1.0 5.0 0.00 0.00 0.00 25 1016.0
20260504184605 77 50 2.0 4.0 0.00 0.00 0.00 26 1016.0
20260504184105 77 121 2.0 4.0 0.00 0.00 0.00 27 1016.1
20260504183608 76 117 1.0 3.0 0.00 0.00 0.00 26 1016.1
20260504183411 76 119 2.0 5.0 0.00 0.00 0.00 27 1016.1
20260504182906 76 42 2.0 5.0 0.00 0.00 0.00 28 1016.2
20260504182101 76 130 2.0 4.0 0.00 0.00 0.00 28 1016.3
20260504181602 76 50 1.0 4.0 0.00 0.00 0.00 30 1016.2
20260504181056 77 30 1.0 4.0 0.00 0.00 0.00 28 1016.2
20260504180550 77 182 2.0 5.0 0.00 0.00 0.00 27 1016.2
20260504180044 76 53 2.0 5.0 0.00 0.00 0.00 27 1016.2
20260504175540 76 317 1.0 3.0 0.00 0.00 0.00 27 1016.2
20260504175039 74 197 2.0 4.0 0.00 0.00 0.00 31 1016.3
20260504174645 73 103 2.0 5.0 0.00 0.00 0.00 31 1016.4
20260504174626 74 50 2.0 5.0 0.00 0.00 0.00 29 1016.3
20260504173539 74 57 2.0 4.0 0.00 0.00 0.00 28 1016.6
20260504173038 75 336 1.0 3.0 0.00 0.00 0.00 28 1016.8
20260504172847 75 5 1.0 4.0 0.00 0.00 0.00 27 1016.9
20260504172037 74 258 1.0 4.0 0.00 0.00 0.00 28 1016.9
20260504171538 74 96 1.0 4.0 0.00 0.00 0.00 27 1016.8
20260504171039 74 69 1.0 4.0 0.00 0.00 0.00 26 1016.8
20260504170535 73 185 1.0 4.0 0.00 0.00 0.00 27 1016.9
20260504170334 73 41 2.0 3.0 0.00 0.00 0.00 28 1017.0
20260504151141 65 221 1.0 4.0 0.00 0.00 0.00 47 1018.3
20260504151111 65 10 2.0 4.0 0.00 0.00 0.00 46 1018.2
20260504141002 61 121 1.0 2.0 0.00 0.00 0.00 63 1018.1
20260504140504 60 132 1.0 2.0 0.00 0.00 0.00 62 1018.1
20260504130504 53 209 1.0 4.0 0.00 0.00 0.00 75 1018.3
20260504130309 52 269 1.0 4.0 0.00 0.00 0.00 76 1018.2
20260504110505 44 264 0.0 1.0 0.00 0.00 0.00 87 1017.9
20260504100501 44 264 0.0 1.0 0.00 0.00 0.00 85 1017.4
20260504082001 51 264 0.0 1.0 0.00 0.00 0.00 72 1017.2
20260504081503 51 264 0.0 1.0 0.00 0.00 0.00 71 1017.2
20260504080957 51 264 0.0 1.0 0.00 0.00 0.00 70 1017.1
20260504080451 51 264 0.0 1.0 0.00 0.00 0.00 70 1017.1
20260504050407 53 264 0.0 1.0 0.00 0.00 0.00 68 1017.4
20260504045904 53 264 0.0 1.0 0.00 0.00 0.00 68 1017.5
20260504045713 53 264 0.0 0.0 0.00 0.00 0.00 67 1017.5
20260504044904 53 264 0.0 0.0 0.00 0.00 0.00 67 1017.6
20260504044404 53 264 0.0 0.0 0.00 0.00 0.00 68 1017.5
20260504043904 53 264 0.0 1.0 0.00 0.00 0.00 68 1017.5
20260504043404 53 264 0.0 1.0 0.00 0.00 0.00 69 1017.5
20260504042904 53 264 0.0 1.0 0.00 0.00 0.00 69 1017.6
20260504042403 53 264 0.0 1.0 0.00 0.00 0.00 67 1017.6
20260504041903 53 264 0.0 0.0 0.00 0.00 0.00 66 1017.7
20260504041405 54 264 0.0 0.0 0.00 0.00 0.00 65 1017.8
20260504040904 54 264 0.0 0.0 0.00 0.00 0.00 65 1017.9
20260504040404 54 264 0.0 0.0 0.00 0.00 0.00 65 1017.9
20260504035907 54 264 0.0 0.0 0.00 0.00 0.00 64 1017.9
20260504035512 54 264 0.0 0.0 0.00 0.00 0.00 65 1017.9
20260504035447 54 264 0.0 0.0 0.00 0.00 0.00 64 1017.9
20260504034401 55 264 0.0 0.0 0.00 0.00 0.00 63 1017.9
20260504033901 55 264 0.0 0.0 0.00 0.00 0.00 62 1017.9
20260504033401 55 264 0.0 0.0 0.00 0.00 0.00 61 1018.0
20260504032901 55 264 0.0 0.0 0.00 0.00 0.00 61 1017.9
20260504032402 55 264 0.0 0.0 0.00 0.00 0.00 61 1017.9
20260504031900 55 264 0.0 0.0 0.00 0.00 0.00 61 1018.0
20260504031353 56 264 0.0 0.0 0.00 0.00 0.00 61 1017.9
20260504031149 56 264 0.0 0.0 0.00 0.00 0.00 60 1017.9
20260504030342 56 264 0.0 0.0 0.00 0.00 0.00 56 1017.9
20260504030139 57 264 0.0 0.0 0.00 0.00 0.00 56 1017.9
20260504025335 57 264 0.0 0.0 0.00 0.00 0.00 55 1017.8
20260504024832 57 264 0.0 1.0 0.00 0.00 0.00 55 1017.9
20260504024332 57 264 0.0 1.0 0.00 0.00 0.00 56 1017.8
20260504023833 57 264 0.0 1.0 0.00 0.00 0.00 55 1017.8
20260504023633 57 244 0.0 1.0 0.00 0.00 0.00 54 1017.7
20260504022830 57 244 0.0 1.0 0.00 0.00 0.00 54 1017.7
20260504022327 58 245 0.0 1.0 0.00 0.00 0.00 53 1017.6
20260504021827 58 245 0.0 1.0 0.00 0.00 0.00 53 1017.5
20260504021330 58 245 0.0 1.0 0.00 0.00 0.00 52 1017.5
20260504021132 58 245 0.0 0.0 0.00 0.00 0.00 52 1017.4
20260504020326 58 245 0.0 0.0 0.00 0.00 0.00 51 1017.3
20260504015825 58 245 0.0 1.0 0.00 0.00 0.00 51 1017.2
20260504015324 58 245 0.0 1.0 0.00 0.00 0.00 51 1017.2
20260504014823 59 245 0.0 0.0 0.00 0.00 0.00 50 1017.2
20260504014327 59 245 0.0 0.0 0.00 0.00 0.00 49 1017.1
20260504013821 59 245 0.0 1.0 0.00 0.00 0.00 49 1017.1
20260504013320 59 245 0.0 1.0 0.00 0.00 0.00 50 1017.0
20260504012826 59 246 0.0 1.0 0.00 0.00 0.00 50 1017.1
20260504012320 60 246 0.0 0.0 0.00 0.00 0.00 50 1017.0
20260504011819 60 246 0.0 0.0 0.00 0.00 0.00 49 1017.0
20260504011611 60 246 0.0 0.0 0.00 0.00 0.00 46 1016.9
20260504011133 61 246 0.0 1.0 0.00 0.00 0.00 45 1016.9
20260504010316 61 246 0.0 1.0 0.00 0.00 0.00 44 1016.8
20260504005816 62 246 0.0 1.0 0.00 0.00 0.00 44 1016.9
20260504005315 62 246 0.0 1.0 0.00 0.00 0.00 45 1016.8
20260504004816 62 246 0.0 0.0 0.00 0.00 0.00 45 1016.8
20260504004317 62 246 0.0 0.0 0.00 0.00 0.00 44 1016.8
20260504003818 62 246 0.0 0.0 0.00 0.00 0.00 44 1016.8
20260504003315 62 246 0.0 0.0 0.00 0.00 0.00 44 1016.7
20260504002813 63 246 0.0 0.0 0.00 0.00 0.00 44 1016.7
20260504002315 63 246 0.0 0.0 0.00 0.00 0.00 44 1016.6
20260504002104 63 246 0.0 0.0 0.00 0.00 0.00 44 1016.6
20260504001704 64 246 0.0 0.0 0.00 0.00 0.00 40 1016.5
20260504001659 63 246 0.0 0.0 0.00 0.00 0.00 42 1016.5
20260504000313 64 246 0.0 1.0 0.00 0.00 0.00 40 1016.4
20260503235312 65 246 0.0 1.0 0.00 0.00 0.00 38 1016.4
20260503234813 65 246 0.0 1.0 0.00 0.00 0.00 38 1016.4
20260503234418 66 246 0.0 1.0 0.00 0.00 0.00 36 1016.4
20260503234358 65 246 0.0 1.0 0.00 0.00 0.00 36 1016.4
20260503233310 66 246 0.0 2.0 0.00 0.00 0.00 37 1016.3
20260503232809 66 200 1.0 3.0 0.00 0.00 0.00 36 1016.4
20260503232552 67 214 1.0 3.0 0.00 0.00 0.00 34 1016.4
20260503231808 67 221 0.0 2.0 0.00 0.00 0.00 33 1016.3
20260503231307 67 230 0.0 2.0 0.00 0.00 0.00 35 1016.4
20260503230810 67 117 1.0 4.0 0.00 0.00 0.00 34 1016.4
20260503230313 67 117 1.0 4.0 0.00 0.00 0.00 34 1016.4
20260503225811 68 242 0.0 2.0 0.00 0.00 0.00 32 1016.4
20260503225312 68 194 1.0 3.0 0.00 0.00 0.00 32 1016.3
20260503224813 69 203 1.0 4.0 0.00 0.00 0.00 31 1016.4
20260503224308 69 202 1.0 4.0 0.00 0.00 0.00 31 1016.5